View from above orbital plane
|
View from above satellite
|
Ground track
|
The orbit data is extracted from the following two-line orbital elements,
1 44739U 19074AC 21025.11015735 .00000803 00000-0 73557-4 0 9993
2 44739 53.0013 319.3738 0001460 86.4955 273.6200 15.05992857 66848
Epoch (UTC): | 25 January 2021 02:38:37 |
Eccentricity: | 0.0001460 |
inclination: | 53.0013° |
perigee height: | 547 km |
apogee height: | 549 km |
right ascension of ascending node: | 319.3738° |
argument of perigee: | 86.4955° |
revolutions per day: | 15.05992857 |
mean anomaly at epoch: | 273.6200° |
orbit number at epoch: | 6684 |
The dashed part of the orbit path shows where the satellite is in the earth's shadow,
|
|